SL-12 DEB, 41560

Orbit data source: Space-Track

SL-12 DEB, 41560 is space debris in HEO originally from a launch on Thu, 25 Dec 2008 UTC launched from the Tyuratam Missile And Space Complex (TTMTR). Debris objects in space refer to the collection of defunct objects orbiting the Earth. Examples of debris include non-operational satellites, rocket bodies, and fragments generated from explosions, collisions, or faulty payload assembly.

Loading next visibility...
SL-12 DEB details
Identifier
41560, 2008-067J
Orbit
HEO
Last TLE update1 day ago
Origin
Flag of CISVVKO VKS (CIS)
ManufacturerRKKE
MissionSpacecraft
Bus & MotorUnknown
MassUnknown
Launch date (UTC)
2008-12-25 (16 years ago)
Launch vehicleUnknown
Launch site
Tyuratam Missile And Space Complex (TTMTR)
Object type
Payload
Rocket body
Debris
Shape & HBRUnknown
Radar Cross SectionMedium (>0.1 m² and <1 m²)

Expand to show TLE details & history

TLE from 1 day ago
0 SL-12 DEB
1 41560U 08067J   24360.29850320  .00000232  00000-0  29042-2 0  9997
2 41560  65.4606   6.6443 5616559 266.6297  31.2055  4.22903594134892
Epoch: 2024-12-25T07:09Z
Definitive object data (Epoch: 2024-12-25T07:09:50.676Z)
Latitude-0.0001°
Longitude164.89338°
Altitude5,063.054 km
Speed6.709 km/s
True Right ascension00h 26m 35s
True Declination0° 00' 00"
Sunlit
Object was in daylight at TLE epoch
Visualization TLE readout
Latitude64.95561°
Longitude-118.11234°
Altitude18,844.31 km
Speed2.636 km/s
Apparent Right ascension04h 16m 34s
Apparent Declination54° 23' 50"
Sunlit
Object is in daylight
Visualization observer readout
Local Sidereal Time13:09:42
Azimuth334.277° NNW
Elevation12.451°
Doppler factor1
Orbital elements
Apogee altitude18,844.78 km
Perigee altitude701.73 km
Semi-major axis16,151.392 km
Eccentricity0.5616559
Inclination65.4606°
RAAN6.6443°
Arg. of periapsis266.6297°
True anomaly93.41498°
Mean anomaly31.2055°
Eccentric anomaly58.70342°
Mean motion1.05737 °/min
BSTAR0.0029042
Orbital period340.47 mins
Loading maneuver chart data...
Loading historical data...
Loading historical data...
Loading historical data...
Loading historical data...
Loading historical data...
Loading historical data...
Loading historical data...

SL-12 DEB Visibility forecast

Observer location: undefined°, undefined

Span
Click to sort rows by Start time (UTC) header in descending order
Start Az.
Max El. time (UTC)
Max El. Az.
Max El.
End time (UTC)
End Az.
137 mins2024-12-26 13:47:57.794Z334.265° NNW2024-12-26 15:17:57.794Z307.118° NW24.167°2024-12-26 16:04:57.794Z261.631° W
191 mins2024-12-26 22:56:57.794Z130.058° SE2024-12-26 23:46:57.794Z67.1° ENE34.535°2024-12-27 02:07:57.794Z31.051° NE
264 mins2024-12-27 04:44:57.794Z254.116° W2024-12-27 07:19:57.794Z8.265° NNE39.803°2024-12-27 09:08:57.794Z104.517° ESE
107 mins2024-12-27 12:00:57.794Z329.706° NNW2024-12-27 13:47:57.794Z312.113° NW31.893°2024-12-27 13:47:57.794Z312.113° NW
|